Weather History for KFYV - February, 2014

Change the Weather History Date:

Friday, February 21, 2014

  Actual Average Record
Temperature  
Mean Temperature 42 °F 41 °F  
Max Temperature 59 °F 53 °F 83 °F (1996)
Min Temperature 25 °F 30 °F 6 °F (1963)
Degree Days  
Heating Degree Days 23 24  
Month to date heating degree days 672 551  
Since 1 July heating degree days 3528 3145  
Moisture  
Dew Point 15 °F    
Average Humidity 44    
Maximum Humidity 74    
Minimum Humidity 13    
Precipitation  
Precipitation 0.00 in 0.11 in 0.59 in (2015)
Month to date precipitation 0.79 2.03  
Year to date precipitation 2.43 4.87  
Sea Level Pressure  
Sea Level Pressure 30.03 in    
Wind  
Wind Speed 8 mph (SW)    
Max Wind Speed 20 mph    
Max Gust Speed 25 mph    
Visibility 10 miles    
Events      
T = Trace of Precipitation, MM = Missing Value Source: NWS Daily Summary

Daily Weather History Graph

Daily Weather History Graph

Search for Another Location

Airport or City:

Trip Planner

Search our weather history database for the weather conditions in past years. The results will help you decide how hot, cold, wet, or windy it might be!

Date:

Astronomy

Feb. 21, 2014 Rise Set
Actual Time 6:56 AM CST 6:04 PM CST
Civil Twilight 6:30 AM CST 6:30 PM CST
Nautical Twilight 6:01 AM CST 6:59 PM CST
Astronomical Twilight 5:31 AM CST 7:29 PM CST
Moon No Moon Rise 10:34 AM CST (2/21)
Length of Visible Light 11h 59m
Length of Day
11h 07m
Waning Gibbous, 60% of the Moon is Illuminated
Feb 21
Waning Gibbous
Feb 22
Last Quarter
Mar 1
New
Mar 8
First Quarter
Mar 16
Full

Hourly Weather History & Observations

Time (CST) Temp. Windchill Dew Point Humidity Pressure Visibility Wind Dir Wind Speed Gust Speed Precip Events Conditions
12:53 AM 39.9 °F 33.4 °F 16.0 °F 38% 30.00 in 10.0 mi WSW 10.4 mph - N/A   Clear
1:53 AM 39.9 °F 33.4 °F 16.0 °F 38% 30.02 in 10.0 mi West 10.4 mph 19.6 mph N/A   Clear
2:53 AM 39.0 °F 32.8 °F 16.0 °F 39% 30.03 in 10.0 mi West 9.2 mph 18.4 mph N/A   Clear
3:53 AM 37.0 °F 31.6 °F 16.0 °F 42% 30.03 in 10.0 mi WNW 6.9 mph - N/A   Clear
4:53 AM 36.0 °F 30.3 °F 16.0 °F 44% 30.04 in 10.0 mi West 6.9 mph - N/A   Clear
5:53 AM 34.0 °F 28.8 °F 16.0 °F 48% 30.05 in 10.0 mi West 5.8 mph - N/A   Clear
6:53 AM 25.0 °F 18.1 °F 18.0 °F 75% 30.07 in 10.0 mi South 5.8 mph - N/A   Clear
7:53 AM 32.0 °F 26.4 °F 19.0 °F 59% 30.08 in 10.0 mi SW 5.8 mph - N/A   Clear
8:53 AM 39.9 °F 34.5 °F 21.0 °F 47% 30.09 in 10.0 mi South 8.1 mph - N/A   Clear
9:53 AM 48.0 °F - 18.0 °F 30% 30.07 in 10.0 mi SSW 10.4 mph - N/A   Clear
10:53 AM 51.1 °F - 12.9 °F 22% 30.05 in 10.0 mi SSW 9.2 mph - N/A   Clear
11:53 AM 54.0 °F - 12.0 °F 19% 30.03 in 10.0 mi SSW 10.4 mph - N/A   Clear
12:53 PM 57.0 °F - 15.1 °F 19% 30.02 in 10.0 mi SSW 15.0 mph 21.9 mph N/A   Clear
1:53 PM 57.0 °F - 12.0 °F 17% 29.99 in 10.0 mi SW 13.8 mph 24.2 mph N/A   Clear
2:53 PM 57.9 °F - 10.0 °F 15% 29.98 in 10.0 mi SSW 18.4 mph 24.2 mph N/A   Clear
3:53 PM 59.0 °F - 8.1 °F 13% 29.98 in 10.0 mi SW 17.3 mph 23.0 mph N/A   Clear
4:53 PM 57.0 °F - 9.0 °F 15% 29.96 in 10.0 mi SW 12.7 mph 20.7 mph N/A   Clear
5:53 PM 54.0 °F - 10.9 °F 18% 29.99 in 10.0 mi SW 6.9 mph - N/A   Clear
6:53 PM 51.1 °F - 12.9 °F 22% 30.01 in 10.0 mi SSW 5.8 mph - N/A   Clear
7:53 PM 44.1 °F - 17.1 °F 34% 30.01 in 10.0 mi Calm Calm - N/A   Clear
8:53 PM 41.0 °F - 17.1 °F 38% 30.02 in 10.0 mi Calm Calm - N/A   Clear
9:53 PM 46.9 °F - 15.1 °F 28% 30.03 in 10.0 mi WSW 4.6 mph - N/A   Clear
10:53 PM 41.0 °F - 18.0 °F 40% 30.03 in 10.0 mi Calm Calm - N/A   Clear
11:53 PM 37.9 °F - 19.0 °F 47% 30.03 in 10.0 mi Calm Calm - N/A   Clear